Theta_e
320 319 319 319 318 318 317 317 317 318 318 319 319 318 317 316 316 317 317 316 315 315 315 316 316 315 316 316 316 317 317 317 317 317 317 318 317 317 317 316 317 316 316
319 319 319 319 318 318 317 317 316 316 317 318 319 319 318 318 317 317 317 318 317 316 316 316 316 315 315 315 315 316 317 317 317 317 317 317 317 317 317 317 317 316 317
319 319 318 318 318 318 318 318 317 316 316 316 316 317 318 319 317 317 318 318 318 317 317 316 316 315 314 315 315 316 316 317 317 317 317 317 316 316 317 317 316 316 316
320 320 319 319 318 318 318 318 318 317 316 315 315 315 315 316 317 317 315 315 315 315 316 316 315 315 314 314 315 315 315 316 316 316 316 317 316 316 316 316 315 316 316
321 321 319 319 319 319 319 318 318 317 317 317 316 314 314 315 315 315 315 315 314 314 314 314 314 314 314 315 315 315 315 315 315 316 316 316 316 316 315 315 314 314 314
320 320 320 320 319 319 319 319 319 318 317 316 315 315 315 313 313 313 314 314 315 315 315 315 315 316 315 315 315 315 315 314 315 315 315 315 315 315 315 315 314 313 313
311 311 313 318 320 320 321 320 320 319 319 318 317 316 315 315 315 314 313 313 313 313 313 313 313 313 314 314 314 315 315 315 315 314 314 315 315 315 315 314 314 314 314
302 302 302 305 307 311 316 318 320 320 319 319 319 319 318 318 318 318 316 313 312 312 312 312 312 312 312 313 313 312 312 313 314 315 313 314 314 314 313 313 314 314 308
297 297 296 298 300 301 302 304 307 312 316 320 320 319 318 317 316 316 316 314 312 312 312 312 312 312 313 313 312 311 311 311 310 309 307 303 307 309 310 309 306 305 295
293 292 292 293 294 294 296 298 300 302 304 310 311 308 304 307 301 301 307 311 311 311 312 312 311 311 312 312 311 310 310 310 305 293 291 289 289 291 291 295 296 301 290
290 289 289 290 290 291 292 294 296 297 297 295 294 293 294 293 293 297 302 304 306 305 301 298 295 293 297 301 305 307 305 300 291 289 285 284 284 284 285 286 287 287 282
288 287 287 287 287 288 288 290 291 292 292 291 290 288 287 288 287 290 294 297 296 294 289 287 286 287 292 292 292 292 291 290 288 285 282 280 280 279 280 280 281 280 280
288 286 286 286 286 286 285 286 287 288 287 287 286 285 284 284 285 284 284 286 286 284 282 281 281 282 283 282 283 283 283 281 280 279 278 277 278 278 278 278 277 277 277
287 286 285 284 283 284 285 285 285 285 284 284 284 283 283 283 284 284 284 283 283 283 282 281 280 280 280 280 281 279 278 278 277 277 276 276 277 277 276 277 276 276 274
286 285 284 284 283 282 281 282 283 284 284 284 284 284 284 284 283 283 283 282 281 281 281 280 278 278 277 277 277 277 277 278 277 276 275 275 274 274 274 274 274 273 273
285 284 284 283 283 282 280 279 279 281 281 282 282 282 281 281 281 281 280 280 280 280 279 276 275 275 275 274 274 274 274 274 274 274 273 273 272 271 271 271 271 271 271
283 283 282 282 281 280 279 278 277 277 277 278 279 279 280 280 279 278 278 278 278 279 275 274 274 273 273 273 272 272 271 272 273 272 271 271 271 270 270 270 270 270 270
281 281 280 279 278 278 277 276 275 274 274 273 274 276 276 276 276 276 277 280 276 274 273 272 272 272 271 271 271 270 270 270 269 269 269 269 269 269 268 268 268 268 269
279 278 278 278 277 277 276 275 274 274 273 273 273 274 273 274 278 278 278 275 272 271 271 271 271 271 270 270 269 269 269 268 268 268 267 267 267 267 267 266 266 266 266
277 277 277 277 276 275 275 274 273 272 271 270 271 271 273 275 273 271 272 272 271 270 270 270 270 269 269 269 268 268 267 267 267 266 266 266 266 266 266 265 265 265 265
276 276 276 275 274 274 273 272 271 270 269 268 268 269 271 271 269 268 268 268 268 268 268 268 268 268 268 267 267 267 266 266 265 265 265 265 265 265 265 265 265 265 264
275 275 274 273 273 272 272 271 270 269 268 268 267 268 269 268 267 267 266 266 266 266 266 267 266 266 266 266 265 265 265 264 264 264 264 264 264 264 264 264 264 264 264
274 274 273 272 272 271 271 270 269 268 267 267 266 266 266 266 265 265 265 264 265 264 264 265 265 264 264 264 264 263 263 263 263 263 263 263 263 263 263 264 264 264 264
272 272 271 271 270 270 269 268 267 267 266 266 266 265 265 265 264 264 264 264 264 264 263 263 263 263 263 262 262 262 262 262 262 262 262 262 262 263 263 263 263 263 263
271 270 270 269 269 268 268 267 267 266 266 265 265 264 264 264 263 263 263 263 263 262 262 262 262 262 261 261 261 261 260 260 261 262 262 262 262 263 263 263 263 263 263
269 268 268 268 268 267 267 267 266 266 265 265 264 264 263 263 262 262 262 262 261 261 261 261 261 261 260 260 260 260 260 260 260 262 262 262 262 262 262 262 262 263 263
Wind_Speed
22 22 22 24 23 20 20 21 22 22 22 22 26 27 27 29 31 26 26 28 26 29 32 36 32 34 36 35 33 31 30 30 15 21 25 24 27 29 32 40 39 36 40
19 19 21 22 22 22 20 19 21 20 21 21 25 28 29 30 31 34 36 35 33 32 32 31 35 35 36 36 35 36 35 35 27 23 25 29 32 37 39 41 44 44 42
19 20 20 18 22 23 23 21 20 21 22 24 25 28 31 32 32 34 35 34 36 39 39 39 37 38 37 35 34 32 33 32 29 27 27 27 32 35 39 41 43 43 44
19 17 19 20 21 25 23 22 21 21 22 23 25 27 29 33 35 37 35 36 36 38 39 38 38 39 38 35 34 37 34 31 29 26 27 31 28 29 33 31 31 39 43
18 17 18 19 20 23 24 24 23 23 24 24 25 29 31 33 36 35 35 35 37 38 39 42 43 46 47 46 37 34 31 30 29 28 28 29 29 28 27 35 31 37 36
14 15 17 18 19 20 23 25 26 25 25 25 27 29 32 34 35 36 36 34 35 37 36 40 44 46 48 49 51 52 43 36 35 31 31 31 35 36 35 32 31 26 17
24 19 12 3 15 21 22 23 26 28 28 29 30 31 32 34 35 37 37 39 35 37 39 39 39 43 46 48 51 53 54 55 54 46 39 38 36 37 35 32 31 33 33
22 19 17 14 11 9 2 11 20 25 29 30 31 31 33 36 37 37 37 40 41 40 40 42 41 42 42 45 48 43 48 54 58 61 55 48 43 38 36 35 33 31 25
20 18 17 16 15 14 13 12 10 10 8 18 21 23 27 21 23 32 36 38 37 41 43 41 40 40 44 45 45 42 41 39 40 40 32 29 41 48 51 46 34 24 6
20 17 16 16 16 16 15 15 15 11 10 8 4 2 6 6 8 8 13 30 28 29 31 32 29 36 39 40 42 39 35 31 28 12 8 6 5 2 2 11 19 21 8
17 19 21 19 17 17 15 17 18 17 15 17 18 19 19 21 18 16 10 7 9 13 6 6 10 14 16 20 28 33 23 16 18 15 20 22 23 24 25 22 15 14 17
17 21 21 22 23 23 22 21 21 20 22 20 18 20 20 21 25 21 15 10 8 14 20 21 23 28 21 18 16 14 14 22 25 27 25 23 26 26 30 29 28 29 28
16 21 22 24 23 24 25 23 22 23 20 19 18 18 19 20 20 24 28 23 24 28 26 25 25 30 33 35 34 30 31 29 27 28 25 25 24 25 27 27 26 25 28
14 17 19 22 25 27 26 26 22 18 17 16 16 16 18 22 21 20 22 23 24 26 27 31 33 35 37 34 35 35 37 33 30 27 24 25 23 24 25 20 18 19 23
14 13 15 16 18 28 35 29 28 32 22 20 20 20 19 22 24 23 21 23 24 25 27 29 30 32 30 30 33 34 33 31 30 25 24 23 22 22 20 19 18 18 17
12 13 14 14 15 17 20 27 35 34 33 32 28 27 29 25 24 24 25 23 23 24 32 27 25 25 24 24 25 26 27 27 24 23 23 21 20 17 15 16 17 15 14
13 11 13 14 14 13 15 16 16 23 31 31 29 27 25 23 23 24 26 28 27 31 30 24 22 21 20 21 22 23 23 22 20 21 20 18 16 14 14 13 12 11 13
15 14 14 14 16 18 19 20 20 17 16 18 23 24 25 26 25 23 23 28 32 31 28 24 22 21 20 20 20 20 20 20 21 20 19 18 16 13 12 12 12 10 10
14 15 16 17 19 20 20 21 21 20 20 19 20 23 22 23 26 27 26 31 26 25 23 23 21 19 19 18 19 20 20 21 20 19 18 17 16 16 16 14 13 14 12
15 14 16 18 18 19 19 19 19 19 20 20 22 19 18 23 29 28 28 27 26 23 21 20 18 17 16 15 15 15 16 16 16 16 16 15 14 14 14 13 12 12 10
14 15 16 17 17 17 17 18 18 19 20 22 22 20 21 25 24 25 24 24 23 21 19 17 16 16 15 14 14 14 14 13 13 11 11 10 9 11 10 9 9 9 10
13 15 15 16 16 17 17 17 18 19 18 19 19 20 20 23 23 23 22 21 19 18 16 15 15 15 14 13 12 10 10 10 9 8 7 7 7 7 7 8 8 9 11
12 14 15 15 15 16 17 17 17 18 18 18 18 19 20 21 20 20 19 18 16 16 14 12 12 12 11 10 9 8 8 7 6 4 3 3 4 5 6 6 8 10 11
11 12 13 14 14 16 17 17 17 17 17 18 18 17 17 16 17 16 14 13 13 13 12 11 11 10 9 9 9 8 8 8 7 6 5 4 4 4 4 5 7 8 10
12 13 14 14 15 15 16 16 16 15 15 15 15 14 13 13 13 11 10 9 9 9 9 9 8 8 9 9 8 8 8 8 6 5 4 3 2 2 3 5 6 8 10
14 14 14 14 14 13 13 13 13 12 12 11 11 11 10 9 8 6 6 7 7 7 6 6 6 7 7 6 5 6 8 8 7 4 3 2 2 3 3 4 6 7 10
Wind_Direction
177 189 196 205 210 216 212 212 214 209 204 207 199 193 194 194 195 199 201 205 209 212 214 217 222 229 233 229 232 238 239 237 229 243 246 241 234 252 261 256 262 262 267
179 180 196 211 213 217 220 222 222 218 213 213 211 210 209 210 210 211 214 220 224 226 224 229 226 233 239 240 237 237 236 237 231 244 246 246 253 264 264 264 263 266 267
180 185 190 205 216 219 223 226 227 227 225 224 224 222 222 221 220 222 223 229 230 228 232 234 236 239 240 240 244 242 243 244 243 245 250 248 260 265 263 263 265 266 269
187 187 191 206 213 220 221 224 227 229 230 229 231 233 232 231 229 230 233 236 235 236 238 233 234 241 243 247 246 248 244 240 239 236 245 257 256 255 253 255 260 262 262
193 195 204 210 214 219 221 228 231 231 234 237 235 235 237 237 237 235 239 239 236 236 241 245 247 251 255 254 246 246 241 237 242 244 248 251 252 246 241 251 250 259 258
201 211 219 209 213 217 224 228 232 236 237 239 238 239 240 240 241 242 238 232 234 236 240 246 251 253 255 255 256 256 246 240 242 243 247 246 246 246 247 246 247 248 260
65 62 60 197 221 221 224 226 231 235 238 239 243 245 246 248 246 243 239 236 234 236 240 241 242 247 252 253 254 254 254 252 250 249 247 247 250 247 249 252 249 253 259
51 45 33 30 32 41 70 232 233 229 230 234 237 245 248 253 257 257 252 241 238 239 241 243 242 246 246 249 251 248 252 255 253 248 248 254 257 256 251 250 255 262 253
47 43 33 26 26 26 23 5 340 349 291 245 233 236 236 239 245 245 250 245 239 241 245 246 245 245 246 246 243 242 245 247 250 248 250 246 249 254 257 257 252 246 230
34 34 39 38 32 27 23 20 15 12 6 336 46 80 41 194 350 349 274 245 242 245 252 257 262 258 254 251 252 248 251 248 230 196 164 88 63 28 53 249 253 233 166
38 39 39 40 37 34 33 36 39 41 48 55 62 57 52 44 30 27 18 8 271 253 2 2 348 330 304 296 277 257 247 207 163 138 101 92 83 78 74 72 79 106 85
41 45 44 46 45 41 47 48 51 53 58 58 61 53 48 47 47 40 45 67 92 102 85 83 70 70 84 71 68 96 116 133 121 106 90 77 76 72 78 82 85 84 85
50 52 46 49 49 47 45 44 44 51 51 49 51 51 45 52 58 59 59 77 86 86 80 75 72 76 74 73 85 81 80 79 77 75 77 76 75 87 87 79 80 81 77
52 57 58 53 52 54 50 47 48 49 54 58 59 60 57 53 59 70 78 80 86 90 88 84 81 82 81 78 80 75 77 76 72 71 68 73 79 76 73 78 75 70 66
57 60 63 66 68 68 62 55 57 58 64 67 64 66 67 64 62 68 75 81 88 90 92 84 73 68 67 66 71 75 81 85 83 82 78 74 69 66 65 67 65 71 80
60 61 64 69 73 75 75 69 61 62 64 68 71 74 72 75 73 73 75 76 82 88 82 68 64 64 66 68 71 73 77 78 77 80 75 68 66 62 53 50 59 62 71
65 67 74 73 74 78 78 77 77 69 65 64 65 67 69 73 73 76 78 82 84 88 67 59 58 59 64 68 70 72 71 76 81 81 80 77 72 68 65 65 57 62 63
73 83 89 95 97 95 91 90 89 76 65 63 64 68 68 71 71 74 84 93 73 71 71 66 64 68 68 72 77 80 82 80 78 76 76 79 80 77 69 63 60 61 62
83 88 94 97 99 100 97 92 87 80 72 68 70 73 75 71 84 87 85 84 76 71 73 75 77 76 76 78 80 81 82 79 79 77 76 74 76 77 74 70 65 59 56
85 96 102 103 101 101 98 93 89 85 81 74 69 71 79 86 76 76 83 87 86 82 80 81 77 78 78 78 80 81 79 76 74 74 75 75 75 77 76 69 62 58 51
88 92 97 97 94 93 89 85 88 85 81 78 78 80 87 88 86 84 82 80 82 83 85 83 82 81 79 78 77 76 75 74 69 70 74 78 80 80 77 76 72 66 54
89 91 92 92 95 92 91 93 91 89 85 84 82 83 89 90 90 88 86 85 82 82 81 84 87 85 84 81 75 66 63 62 63 64 73 81 80 82 80 80 70 51 38
86 93 95 95 96 98 94 92 92 93 93 92 89 85 84 87 87 86 83 80 77 75 74 76 79 81 76 69 60 52 47 47 45 47 58 77 81 87 86 71 49 37 32
82 89 92 92 95 94 94 94 95 96 95 94 91 90 91 89 89 86 81 75 68 66 67 70 71 67 57 45 38 33 33 38 42 50 66 73 74 75 69 47 31 26 21
89 91 93 93 94 94 96 96 96 97 97 94 90 88 87 88 87 83 74 64 61 62 64 61 56 45 34 29 30 32 26 16 12 22 29 35 40 41 20 12 14 14 10
82 85 87 89 88 90 94 97 97 96 95 92 87 81 72 68 70 64 55 52 51 49 43 30 17 9 10 11 14 10 4 360 0 3 355 349 339 338 350 354 356 357 354